Hilton Head Island, SC

1:53 AM EDT on September 22, 2017 (GMT -0400)
Hilton Head

Weather History for KHXD - July, 2013

Change the Weather History Date:

Wednesday, July 3, 2013

  Actual Average Record
Temperature  
Mean Temperature 80 °F -  
Max Temperature 84 °F 89 °F 99 °F (1960)
Min Temperature 75 °F 72 °F 64 °F (1965)
Cooling Degree Days 14    
Growing Degree Days 30 (Base 50)    
Moisture  
Dew Point 74 °F    
Average Humidity 87    
Maximum Humidity 100    
Minimum Humidity 70    
Precipitation  
Precipitation 0.00 in - - ()
Sea Level Pressure  
Sea Level Pressure 30.16 in    
Wind  
Wind Speed 4 mph (SE)    
Max Wind Speed 14 mph    
Max Gust Speed 16 mph    
Visibility 10 miles    
Events Rain    
Averages and records for this station are not official NWS values.
T = Trace of Precipitation, MM = Missing Value Source: NWS Daily Summary

Daily Weather History Graph

Daily Weather History Graph

Search for Another Location

Airport or City:

Trip Planner

Search our weather history database for the weather conditions in past years. The results will help you decide how hot, cold, wet, or windy it might be!

Date:

Astronomy

Jul. 03, 2013 Rise Set
Actual Time 6:20 AM EDT 8:33 PM EDT
Civil Twilight 5:52 AM EDT 9:01 PM EDT
Nautical Twilight 5:18 AM EDT 9:35 PM EDT
Astronomical Twilight 4:40 AM EDT 10:13 PM EDT
Moon 2:51 AM EDT (7/3) 4:47 PM EDT (7/3)
Length of Visible Light 15h 08m
Length of Day
14h 12m
Waning Crescent, 18% of the Moon is Illuminated
Jul 3
Waning Crescent
Jul 8
New
Jul 15
First Quarter
Jul 22
Full
Jul 29
Last Quarter

Hourly Weather History & Observations

Time (EDT) Temp. Heat Index Dew Point Humidity Pressure Visibility Wind Dir Wind Speed Gust Speed Precip Events Conditions
12:15 AM 78.8 °F - 73.4 °F 83% 30.16 in 10.0 mi SSE 4.6 mph - 0.00 in   Scattered Clouds
12:35 AM 77.0 °F - 73.4 °F 89% 30.15 in 10.0 mi Calm Calm - 0.00 in   Clear
12:55 AM 75.2 °F - 73.4 °F 94% 30.15 in 10.0 mi Calm Calm - 0.00 in   Clear
1:15 AM 75.2 °F - 73.4 °F 94% 30.14 in 10.0 mi Calm Calm - 0.00 in   Clear
1:35 AM 75.2 °F - 73.4 °F 94% 30.14 in 10.0 mi SSE 3.5 mph - 0.00 in   Partly Cloudy
1:55 AM 75.2 °F - 73.4 °F 94% 30.14 in 10.0 mi Calm Calm - 0.00 in   Mostly Cloudy
2:15 AM 75.2 °F - 73.4 °F 94% 30.14 in 10.0 mi SSE 3.5 mph - 0.00 in   Scattered Clouds
2:35 AM 75.2 °F - 73.4 °F 94% 30.14 in 10.0 mi SSE 3.5 mph - 0.00 in   Partly Cloudy
2:55 AM 75.2 °F - 73.4 °F 94% 30.14 in 10.0 mi Calm Calm - 0.00 in   Partly Cloudy
3:15 AM 75.2 °F - 73.4 °F 94% 30.13 in 10.0 mi Calm Calm - 0.00 in   Scattered Clouds
3:35 AM 75.2 °F - 75.2 °F 100% 30.14 in 10.0 mi Calm Calm - 0.00 in   Mostly Cloudy
3:55 AM 75.2 °F - 73.4 °F 94% 30.14 in 10.0 mi Calm Calm - 0.00 in   Partly Cloudy
4:15 AM 77.0 °F - 75.2 °F 94% 30.14 in 10.0 mi SE 4.6 mph - 0.00 in   Mostly Cloudy
4:35 AM 78.8 °F - 75.2 °F 89% 30.13 in 10.0 mi SE 4.6 mph - 0.00 in   Mostly Cloudy
4:55 AM 78.8 °F - 75.2 °F 89% 30.14 in 10.0 mi SE 3.5 mph - 0.00 in   Mostly Cloudy
5:15 AM 78.8 °F - 75.2 °F 89% 30.14 in 10.0 mi SSE 3.5 mph - 0.00 in   Mostly Cloudy
5:35 AM 78.8 °F - 75.2 °F 89% 30.14 in 10.0 mi SE 5.8 mph - 0.00 in   Mostly Cloudy
5:55 AM 78.8 °F - 75.2 °F 89% 30.15 in 10.0 mi SE 3.5 mph - 0.00 in   Mostly Cloudy
6:15 AM 78.8 °F - 75.2 °F 89% 30.15 in 9.0 mi SSE 3.5 mph - 0.00 in   Partly Cloudy
6:35 AM 78.8 °F - 75.2 °F 89% 30.15 in 10.0 mi Calm Calm - 0.00 in   Scattered Clouds
6:50 AM 78.8 °F - 73.4 °F 83% 30.15 in 10.0 mi Calm Calm - N/A   Mostly Cloudy
7:50 AM 77.0 °F - 71.6 °F 83% 30.16 in 7.0 mi South 6.9 mph - N/A   Mostly Cloudy
8:50 AM 78.8 °F - 73.4 °F 83% 30.18 in 10.0 mi South 6.9 mph - N/A   Mostly Cloudy
10:30 AM 78.8 °F - 73.4 °F 83% 30.19 in 5.0 mi SSE 11.5 mph - N/A Rain Rain
10:50 AM 78.8 °F - 73.4 °F 83% 30.19 in 10.0 mi SSE 6.9 mph - N/A   Scattered Clouds
11:50 AM 82.4 °F 89.5 °F 75.2 °F 79% 30.18 in 10.0 mi SSE 11.5 mph - N/A   Mostly Cloudy
2:47 PM 82.4 °F 88.2 °F 73.4 °F 74% 30.17 in 10.0 mi SSE 13.8 mph - N/A   Partly Cloudy
3:50 PM 84.2 °F 92.3 °F 75.2 °F 74% 30.16 in 10.0 mi SE 8.1 mph 16.1 mph N/A   Partly Cloudy
4:50 PM 84.2 °F 90.9 °F 73.4 °F 70% 30.15 in 10.0 mi SSE 9.2 mph - N/A   Partly Cloudy
5:50 PM 80.6 °F 86.2 °F 75.2 °F 84% 30.16 in 10.0 mi SSE 6.9 mph - N/A   Scattered Clouds
6:50 PM 82.4 °F 89.5 °F 75.2 °F 79% 30.16 in 10.0 mi SE 9.2 mph - N/A   Scattered Clouds
9:15 PM 80.6 °F 87.1 °F 77.0 °F 89% 30.18 in 10.0 mi SE 5.8 mph - 0.00 in   Clear
9:35 PM 80.6 °F 86.2 °F 75.2 °F 84% 30.19 in 10.0 mi SE 5.8 mph - 0.00 in   Clear
9:55 PM 80.6 °F 86.2 °F 75.2 °F 84% 30.19 in 10.0 mi SE 6.9 mph - 0.00 in   Clear
10:15 PM 80.6 °F 86.2 °F 75.2 °F 84% 30.20 in 10.0 mi SE 6.9 mph - 0.00 in   Clear
10:35 PM 80.6 °F 86.2 °F 75.2 °F 84% 30.21 in 10.0 mi ESE 4.6 mph - 0.00 in   Scattered Clouds
10:55 PM 80.6 °F 86.2 °F 75.2 °F 84% 30.21 in 10.0 mi SE 5.8 mph - 0.00 in   Scattered Clouds
11:15 PM 80.6 °F 85.4 °F 73.4 °F 79% 30.21 in 10.0 mi ESE 4.6 mph - 0.00 in   Scattered Clouds
11:35 PM 80.6 °F 85.4 °F 73.4 °F 79% 30.21 in 10.0 mi SE 4.6 mph - 0.00 in   Partly Cloudy
11:55 PM 80.6 °F 86.2 °F 75.2 °F 84% 30.21 in 10.0 mi ESE 6.9 mph - 0.00 in   Scattered Clouds